KN6KS Weather Reports


Display with metric or nautical units.
time (UTC)temp
F
wind
direction
speed
MPH
gust
MPH
rain 1hr
in
rain 24hr
in
rain mn
in
humidity
%
barometer
mb
20260505022304 55 252 11.0 15.0 0.00 0.00 0.00 64 1011.7
20260505021801 55 214 15.0 18.0 0.00 0.00 0.00 64 1011.5
20260505021257 55 241 17.0 22.0 0.00 0.00 0.00 64 1011.5
20260505020753 55 235 19.0 24.0 0.00 0.00 0.00 64 1011.5
20260505020248 55 246 15.0 17.0 0.00 0.00 0.00 64 1011.4
20260505015746 55 232 17.0 21.0 0.00 0.00 0.00 64 1011.5
20260505015243 55 233 18.0 21.0 0.00 0.00 0.00 63 1011.3
20260505014740 56 225 22.0 29.0 0.00 0.00 0.00 63 1011.6
20260505014237 56 265 16.0 22.0 0.00 0.00 0.00 62 1011.6
20260505013734 56 258 20.0 24.0 0.00 0.00 0.00 62 1011.7
20260505013231 57 230 15.0 20.0 0.00 0.00 0.00 61 1011.7
20260505012729 57 251 14.0 16.0 0.00 0.00 0.00 61 1011.9
20260505012226 57 232 16.0 22.0 0.00 0.00 0.00 60 1011.9
20260505011722 57 245 14.0 21.0 0.00 0.00 0.00 60 1011.6
20260505011219 57 261 17.0 22.0 0.00 0.00 0.00 60 1011.8
20260505010714 57 237 15.0 17.0 0.00 0.00 0.00 59 1011.8
20260505010211 58 235 13.0 20.0 0.00 0.00 0.00 59 1011.8
20260505005708 57 219 16.0 18.0 0.00 0.00 0.00 58 1011.9
20260505005205 58 249 16.0 18.0 0.00 0.00 0.00 58 1011.7
20260505004702 58 221 19.0 24.0 0.00 0.00 0.00 56 1011.7
20260505004159 59 272 16.0 21.0 0.00 0.00 0.00 56 1011.8
20260505003656 59 239 16.0 18.0 0.00 0.00 0.00 55 1011.6
20260505003153 59 291 23.0 27.0 0.00 0.00 0.00 55 1011.7
20260505002649 59 247 19.0 21.0 0.00 0.00 0.00 55 1011.6
20260505002148 59 245 14.0 17.0 0.00 0.00 0.00 55 1011.7
20260505001644 59 216 25.0 30.0 0.00 0.00 0.00 55 1011.3
20260505001142 60 221 17.0 18.0 0.00 0.00 0.00 53 1011.4
20260505000638 59 224 14.0 22.0 0.00 0.00 0.00 53 1011.4
20260505000137 59 246 17.0 22.0 0.00 0.00 0.00 52 1011.6
20260504235632 59 266 24.0 29.0 0.00 0.00 0.00 51 1011.5
20260504235129 60 260 17.0 22.0 0.00 0.00 0.00 51 1011.4
20260504234626 60 245 20.0 24.0 0.00 0.00 0.00 51 1011.6
20260504234124 60 253 14.0 20.0 0.00 0.00 0.00 51 1011.4
20260504233619 60 249 13.0 15.0 0.00 0.00 0.00 51 1011.5
20260504233115 60 220 15.0 17.0 0.00 0.00 0.00 50 1011.6
20260504232613 61 255 14.0 16.0 0.00 0.00 0.00 48 1011.7
20260504232110 60 238 19.0 22.0 0.00 0.00 0.00 48 1011.8
20260504231607 60 257 17.0 21.0 0.00 0.00 0.00 54 1011.7
20260504231103 60 221 16.0 18.0 0.00 0.00 0.00 53 1011.9
20260504230559 60 234 11.0 15.0 0.00 0.00 0.00 54 1011.8
20260504230058 60 224 12.0 14.0 0.00 0.00 0.00 53 1011.8
20260504225555 60 241 12.0 16.0 0.00 0.00 0.00 53 1012.0
20260504225052 60 186 10.0 11.0 0.00 0.00 0.00 53 1011.8
20260504224549 61 232 24.0 30.0 0.00 0.00 0.00 52 1012.2
20260504224046 60 231 9.0 10.0 0.00 0.00 0.00 51 1012.0
20260504223543 61 248 17.0 20.0 0.00 0.00 0.00 51 1012.4
20260504223038 59 200 14.0 17.0 0.00 0.00 0.00 51 1011.9
20260504222536 62 266 14.0 17.0 0.00 0.00 0.00 48 1012.1
20260504222033 62 263 21.0 25.0 0.00 0.00 0.00 43 1012.2
20260504221530 62 245 16.0 20.0 0.00 0.00 0.00 42 1012.1
20260504221027 61 248 10.0 15.0 0.00 0.00 0.00 44 1012.2
20260504220523 62 244 18.0 22.0 0.00 0.00 0.00 43 1012.4
20260504220021 60 253 14.0 17.0 0.00 0.00 0.00 50 1012.4
20260504215517 61 233 14.0 18.0 0.00 0.00 0.00 49 1012.5
20260504215014 60 224 18.0 21.0 0.00 0.00 0.00 49 1012.6
20260504214510 61 193 16.0 21.0 0.00 0.00 0.00 48 1012.2
20260504214006 61 225 11.0 15.0 0.00 0.00 0.00 48 1012.6
20260504213503 60 270 18.0 23.0 0.00 0.00 0.00 46 1012.1
20260504213001 61 232 15.0 20.0 0.00 0.00 0.00 48 1012.1
20260504212456 61 286 13.0 16.0 0.00 0.00 0.00 49 1012.5
20260504211954 61 224 16.0 18.0 0.00 0.00 0.00 47 1012.6
20260504211450 62 241 14.0 17.0 0.00 0.00 0.00 47 1012.7
20260504210948 62 168 15.0 23.0 0.00 0.00 0.00 48 1012.5
20260504210444 61 247 9.0 10.0 0.00 0.00 0.00 49 1012.4
20260504205941 60 259 16.0 21.0 0.00 0.00 0.00 50 1012.4
20260504205439 60 234 13.0 14.0 0.00 0.00 0.00 51 1012.6
20260504204937 60 228 16.0 21.0 0.00 0.00 0.00 52 1012.7
20260504204435 60 238 15.0 17.0 0.00 0.00 0.00 51 1012.6
20260504203934 60 272 7.0 9.0 0.00 0.00 0.00 52 1012.8
20260504203431 60 246 6.0 8.0 0.00 0.00 0.00 51 1012.9
20260504202927 60 289 5.0 6.0 0.00 0.00 0.00 51 1012.7
20260504202424 60 294 5.0 7.0 0.00 0.00 0.00 51 1012.8
20260504201920 59 199 7.0 16.0 0.00 0.00 0.00 52 1012.8
20260504201418 59 260 17.0 21.0 0.00 0.00 0.00 52 1012.7
20260504200915 59 231 16.0 23.0 0.00 0.00 0.00 51 1012.8
20260504200412 60 246 16.0 20.0 0.00 0.00 0.00 50 1012.5
20260504195909 60 279 15.0 16.0 0.00 0.00 0.00 46 1012.6
20260504195404 60 225 15.0 18.0 0.00 0.00 0.00 46 1012.7
20260504194901 61 256 11.0 13.0 0.00 0.00 0.00 44 1012.9
20260504194357 61 227 17.0 22.0 0.00 0.00 0.00 44 1012.8
20260504193853 60 215 20.0 25.0 0.00 0.00 0.00 45 1012.6
20260504193350 61 257 9.0 15.0 0.00 0.00 0.00 46 1012.9
20260504192849 59 297 17.0 21.0 0.00 0.00 0.00 47 1012.9
20260504192346 60 275 15.0 16.0 0.00 0.00 0.00 48 1012.8
20260504191844 59 252 9.0 10.0 0.00 0.00 0.00 51 1012.8
20260504191342 59 245 17.0 20.0 0.00 0.00 0.00 51 1012.9
20260504190838 59 243 14.0 16.0 0.00 0.00 0.00 48 1013.1
20260504190333 59 275 12.0 13.0 0.00 0.00 0.00 50 1013.0
20260504185830 58 261 15.0 20.0 0.00 0.00 0.00 51 1012.9
20260504185327 57 283 15.0 20.0 0.00 0.00 0.00 52 1013.3
20260504184823 58 240 18.0 22.0 0.00 0.00 0.00 51 1013.0
20260504184319 57 340 19.0 24.0 0.00 0.00 0.00 51 1013.1
20260504183815 57 303 17.0 22.0 0.00 0.00 0.00 52 1013.1
20260504183313 57 295 7.0 9.0 0.00 0.00 0.00 53 1013.2
20260504182810 57 245 20.0 24.0 0.00 0.00 0.00 52 1013.2
20260504182308 57 285 11.0 22.0 0.00 0.00 0.00 52 1013.2
20260504181805 57 281 18.0 22.0 0.00 0.00 0.00 51 1013.1
20260504181302 57 252 12.0 16.0 0.00 0.00 0.00 52 1013.2
20260504180801 57 255 12.0 16.0 0.00 0.00 0.00 52 1013.1
20260504180259 57 292 14.0 17.0 0.00 0.00 0.00 54 1013.1
20260504175757 57 298 15.0 20.0 0.00 0.00 0.00 54 1013.0
20260504175253 56 292 14.0 17.0 0.00 0.00 0.00 55 1013.0
20260504174751 57 258 10.0 13.0 0.00 0.00 0.00 55 1013.1
20260504174249 56 244 7.0 8.0 0.00 0.00 0.00 54 1013.1
20260504173745 56 267 10.0 20.0 0.00 0.00 0.00 55 1013.1
20260504173242 56 298 21.0 26.0 0.00 0.00 0.00 55 1012.9
20260504172739 56 242 13.0 18.0 0.00 0.00 0.00 58 1013.1
20260504172235 56 289 11.0 11.0 0.00 0.00 0.00 58 1012.8
20260504171732 56 210 14.0 18.0 0.00 0.00 0.00 57 1012.9
20260504171229 56 244 18.0 22.0 0.00 0.00 0.00 56 1013.0
20260504170726 56 237 11.0 14.0 0.00 0.00 0.00 58 1013.0
20260504170223 55 283 13.0 20.0 0.00 0.00 0.00 59 1012.9
20260504160141 53 235 9.0 10.0 0.00 0.00 0.00 69 1013.0
20260504151109 51 248 15.0 18.0 0.00 0.00 0.00 72 1012.8
20260504150606 52 244 16.0 18.0 0.00 0.00 0.00 72 1012.8
20260504150103 51 229 12.0 14.0 0.00 0.00 0.00 72 1012.8
20260504141032 50 217 17.0 21.0 0.00 0.00 0.00 76 1012.4
20260504140528 50 232 15.0 20.0 0.00 0.00 0.00 76 1012.4
20260504130453 50 258 12.0 14.0 0.00 0.00 0.00 78 1012.0
20260504110340 51 240 17.0 20.0 0.00 0.00 0.00 70 1011.6
20260504100258 51 240 9.0 10.0 0.00 0.00 0.00 72 1011.7
20260504081651 51 245 18.0 23.0 0.00 0.00 0.00 74 1012.1
20260504081147 51 262 17.0 23.0 0.00 0.00 0.00 75 1011.9
20260504080643 51 251 16.0 20.0 0.00 0.00 0.00 75 1012.4
20260504080140 51 225 24.0 29.0 0.00 0.00 0.00 74 1012.1
20260504070108 51 235 10.0 11.0 0.00 0.00 0.00 74 1012.1
20260504050457 53 265 14.0 22.0 0.00 0.00 0.00 69 1012.0
20260504045954 53 244 12.0 16.0 0.00 0.00 0.00 69 1011.7
20260504045449 53 249 14.0 18.0 0.00 0.00 0.00 68 1011.8
20260504044946 53 253 13.0 15.0 0.00 0.00 0.00 68 1011.8
20260504044443 53 238 11.0 17.0 0.00 0.00 0.00 69 1011.4
20260504043941 54 259 15.0 20.0 0.00 0.00 0.00 68 1011.6
20260504043437 54 252 18.0 23.0 0.00 0.00 0.00 68 1011.5
20260504042935 54 239 15.0 20.0 0.00 0.00 0.00 68 1011.4
20260504042431 54 232 11.0 13.0 0.00 0.00 0.00 68 1011.5
20260504041928 54 243 12.0 17.0 0.00 0.00 0.00 68 1011.2
20260504041424 54 230 20.0 24.0 0.00 0.00 0.00 69 1011.4
20260504040920 54 225 17.0 24.0 0.00 0.00 0.00 69 1011.3
20260504040418 54 205 17.0 22.0 0.00 0.00 0.00 69 1011.1
20260504035914 54 229 21.0 25.0 0.00 0.00 0.00 69 1011.1
20260504035412 54 239 15.0 20.0 0.00 0.00 0.00 69 1010.9
20260504034908 54 220 19.0 24.0 0.00 0.00 0.00 69 1011.0
20260504034405 55 274 18.0 23.0 0.00 0.00 0.00 67 1011.0
20260504033902 55 248 17.0 22.0 0.00 0.00 0.00 68 1011.0
20260504033400 55 244 22.0 24.0 0.00 0.00 0.00 67 1011.0
20260504032857 55 231 14.0 16.0 0.00 0.00 0.00 67 1010.4
20260504032354 54 227 23.0 25.0 0.00 0.00 0.00 67 1010.3
20260504031850 54 273 23.0 25.0 0.00 0.00 0.00 69 1010.6
20260504031348 54 272 19.0 26.0 0.00 0.00 0.00 69 1010.5
20260504030844 54 228 22.0 29.0 0.00 0.00 0.00 69 1010.7
20260504030341 54 257 15.0 21.0 0.00 0.00 0.00 69 1010.5
20260504025837 55 289 9.0 11.0 0.00 0.00 0.00 69 1010.3
20260504025334 55 283 7.0 9.0 0.00 0.00 0.00 68 1010.2
20260504024831 55 249 16.0 21.0 0.00 0.00 0.00 68 1009.9
20260504024327 55 263 35.0 42.0 0.00 0.00 0.00 68 1009.7
20260504023824 55 241 22.0 25.0 0.00 0.00 0.00 68 1009.2
20260504023321 55 231 21.0 26.0 0.00 0.00 0.00 68 1009.3
20260504022817 55 261 25.0 32.0 0.00 0.00 0.00 67 1009.1